Location: Banios
(43.0451°N, 0.2335°E)
Time: 17:35:49
(UTC+00:00)

A-11 Canister half - Pass Details

Date: 06 December 2021
Orbit: 1516 x 1684 km, 47.2° (Epoch: 22 January)

Event Time Altitude Azimuth Distance (km) Brightness Sun altitude
Rises 06:25:23 0° 232° (SW) 4,727 11.3 -9.1°
Reaches altitude 10° 06:28:25 10° 231° (SW) 3,766 10.8 -8.6°
Maximum altitude 06:37:57 73° 149° (SSE) 1,678 9.4 -7.0°
Drops below altitude 10° 06:47:53 10° 67° (ENE) 3,907 11.8 -5.3°
Sets 06:51:05 0° 66° (ENE) 4,913 12.3 -4.8°
